Location: Larrial
(48.2758°N, 4.5331°W)
Time: 18:36:29
(UTC+00:00)

STARLINK-52 - Pass Details

Date: 09 April 2020
Orbit: 393 x 394 km, 53.0° (Epoch: 04 June)

Event Time Altitude Azimuth Distance (km) Brightness Sun altitude
Rises 20:53:36 0° 250° (WSW) 2,288 7.3 -17.9°
Reaches altitude 10° 20:55:40 10° 253° (WSW) 1,434 6.2 -18.1°
Maximum altitude 20:58:52 67° 337° (NNW) 432 3.2 -18.6°
Enters shadow 20:59:53 39° 47° (NE) 614 3.7 -18.7°
